Terminal Aerodrome Forecast
Issued by NWS

Home | Current Version | Previous Version | Text Only | Print | Product List | Glossary On
Versions: 1 2 3 4 5 6 7 8 9 10 11 12 13 14 15 16 17 18 19 20
000
FTUS42 KMLB 011500 AAA
TAFSFB
TAF AMD
KSFB 011516Z 0115/0212 09007KT P6SM VCSH SCT007 OVC060
      TEMPO 0115/0116 -SHRA BKN007
     FM011800 04005KT P6SM VCSH FEW010 BKN080
     FM012300 04006KT P6SM FEW025 SCT100 SCT250=

USA.gov is the U.S. government's official web portal to all federal, state and local government web resources and services.